[Iaude] MPEC T259: 2023 TG14 [a=1.00,e=0.21,i=4.4,H=25.8]

mpec at marsden.cfa.harvard.edu mpec at marsden.cfa.harvard.edu
Sun Oct 15 15:58:02 EDT 2023


M.P.E.C. 2023-T259                             Issued 2023 October 15, 19:56 UT

     The Minor Planet Electronic Circulars contain information on unusual
         minor planets, routine data on comets and natural satellites,
         and occasional editorial announcements.  They are published
    on behalf of Division F of the International Astronomical Union by the
          Minor Planet Center, Smithsonian Astrophysical Observatory,
                          Cambridge, MA 02138, U.S.A.
			  
             Prepared using the Tamkin Foundation Computer Network

                              MPC at CFA.HARVARD.EDU
            URL https://www.minorplanetcenter.net/    ISSN 1523-6714

                                   2023 TG14                                    


Observations:
     K23T14G* C2023 10 13.51036303 36 49.080-06 08 45.35         20.98wXET259F51
     K23T14G  C2023 10 13.52169003 36 51.141-06 08 52.06         20.83wXET259F51
     K23T14G  C2023 10 13.53306303 36 53.207-06 08 59.05         20.98wXET259F51
     K23T14G  C2023 10 13.54441103 36 55.299-06 09 05.47         21.23wXET259F51
     K23T14G 3C2023 10 14.43081503 41 01.559-06 18 11.24         20.40GVET259T14
     K23T14G 3C2023 10 14.43179603 41 01.773-06 18 11.96         20.53GVET259T14
     K23T14G 3C2023 10 14.43280303 41 01.997-06 18 12.66         20.47GVET259T14
     K23T14G 3C2023 10 14.43378303 41 02.211-06 18 13.33         20.65GVET259T14
     K23T14G KC2023 10 15.06704 03 44 06.02 -06 26 31.6                VET259204
     K23T14G KC2023 10 15.08500 03 44 10.64 -06 26 43.9          20.5 GVET259204
     K23T14G KC2023 10 15.10301 03 44 15.29 -06 26 56.5                VET259204
     K23T14G KC2023 10 15.11323603 44 19.745-06 27 15.30         20.0 GVET259J95
     K23T14G KC2023 10 15.11936303 44 21.353-06 27 19.40         20.3 GVET259J95
     K23T14G KC2023 10 15.12547103 44 22.944-06 27 22.72         20.6 GVET259J95
     K23T14G 1C2023 10 15.35272303 45 41.486-06 29 20.51         20.08GVET259G96
     K23T14G 1C2023 10 15.35789203 45 42.822-06 29 24.58         20.14GVET259G96
     K23T14G 1C2023 10 15.36303403 45 44.165-06 29 28.25         20.28GVET259G96
     K23T14G 1C2023 10 15.36818003 45 45.508-06 29 32.06         20.31GVET259G96
     K23T14G 3C2023 10 15.38607303 45 59.050-06 28 59.30         20.33GVET259T14
     K23T14G 3C2023 10 15.38704903 45 59.327-06 29 00.12         20.34GVET259T14
     K23T14G 3C2023 10 15.38802703 45 59.599-06 29 00.92         20.36GVET259T14
     K23T14G mC2023 10 15.51405003 46 24.250-06 31 14.50               VET259I52
     K23T14G mC2023 10 15.51524703 46 24.530-06 31 14.50         20.54GVET259I52
     K23T14G mC2023 10 15.51644003 46 24.860-06 31 15.90               VET259I52

Observer details:
204 Schiaparelli Observatory.  Observers L. Buzzi, G. Galli.  0.84-m f/3.5
    reflector + CCD.
F51 Pan-STARRS 1, Haleakala.  Observers J. Bulger, T. Lowe, P. Minguez, A.
    Schultz, I. Smith.  Measurers K. Chambers, T. de Boer, J. Fairlamb, H.
    Gao, M. Huber, C.-C. Lin, E. Magnier, Y. Ramanjooloo, R. Wainscoat, R.
    Weryk.  1.8-m Ritchey-Chretien + CCD.
G96 Mt. Lemmon Survey.  Observer D. C. Fuls.  Measurers E. C. Beshore, D. Fay,
    J. B. Fazekas, D. C. Fuls, A. R. Gibbs, A. D. Grauer, H. Groeller, J. K.
    Hogan, R. A. Kowalski, S. M. Larson, G. J. Leonard, D. Rankin, R. L.
    Seaman, F. C. Shelly, K. W. Wierzchos.  1.5-m reflector + 10K CCD.
I52 Steward Observatory, Mt. Lemmon Station.  Observer J. K. Hogan.  Measurers
    E. C. Beshore, D. Fay, J. B. Fazekas, D. C. Fuls, A. R. Gibbs, A. D.
    Grauer, H. Groeller, J. K. Hogan, R. A. Kowalski, S. M. Larson, G. J.
    Leonard, D. Rankin, R. L. Seaman, F. C. Shelly, K. W. Wierzchos.  1.0-m
    prime focus + CCD.
J95 Great Shefford.  Observer P. Birtwhistle.  0.41-m f/6.3 Schmidt-Cassegrain
    + CCD.
T14 Canada-France-Hawaii Telescope, Maunakea.  Observers R. Wainscoat, L.
    Wells, T. Burdullis, H. Januszewski.  Measurers R. Weryk, R. Wainscoat.
    3.6-m Canada-France-Hawaii Telescope + CCD.

Orbital elements:
2023 TG14                                                Earth MOID = 0.0052 AU
Epoch 2023 Sept. 13.0 TT = JDT 2460200.5                Veres                   
M 243.43738              (2000.0)            P               Q                  
n   0.97932873     Peri.   95.68280     -0.66282397     -0.74741137             
a   1.0042698      Node    35.96542     +0.65294380     -0.60647009             
e   0.2142612      Incl.    4.41139     +0.36650890     -0.27123840             
P   1.01           H   25.88          G   0.15           U   6                  
Residuals in seconds of arc
231013 F51  0.1+  0.1-    231015 204  0.0   0.1+    231015 G96  0.0   0.0
231013 F51  0.0   0.1+    231015 204  0.2+  0.3+    231015 G96  0.2+  0.0
231013 F51  0.1-  0.2-    231015 204  0.3+  0.1+    231015 T14  0.0   0.1+
231013 F51  0.2+  0.1+    231015 J95  0.9+  0.1+    231015 T14  0.0   0.1+
231014 T14  0.1+  0.0     231015 J95  0.6+  0.2+    231015 T14  0.0   0.1+
231014 T14  0.0   0.0     231015 J95  0.2+  1.1+    231015 I52  0.8+  0.6-
231014 T14  0.0   0.0     231015 G96  0.0   0.1-    231015 I52  0.1-  0.2+
231014 T14  0.1-  0.0     231015 G96  0.1-  0.2-    231015 I52  0.2-  0.4-

Ephemeris:
2023 TG14                a,e,i = 1.00, 0.21, 4                   q = 0.7891
Date    TT    R. A. (2000) Decl.     Delta      r    Elong.  Phase     V
2023 09 15    02 41 59.6 -03 44 01   0.1703  1.1268   131.9    41.7    23.9
...
2023 09 30    03 04 06.2 -04 39 15   0.1042  1.0826   139.1    37.3    22.6
...
2023 10 08    03 19 33.2 -05 23 28   0.07139 1.0563   141.6    36.0    21.7
...
2023 10 14    03 38 55.2 -06 12 20   0.04787 1.0355   141.3    37.1    20.9
2023 10 15    03 43 44.7 -06 23 07   0.04405 1.0319   140.8    37.7    20.7
2023 10 16    03 49 23.1 -06 35 08   0.04026 1.0284   140.1    38.4    20.5
...
2023 10 22    05 06 53.0 -08 35 47   0.01885 1.0066   126.0    53.2    19.2
...
2023 10 30    12 34 15.2 -00 45 14   0.01863 0.9768    27.9   151.6    25.9
...
2023 11 14    14 21 24.0 +02 33 27   0.07651 0.9204    24.4   153.7    29.3

M. P. C. Staff               (C) Copyright 2023 MPC           M.P.E.C. 2023-T259





More information about the Iaude mailing list